Radiation Dose at Monitoring Post of Fukushima Daini Nuclear Power Station
Date,Time,MP-1(microSv/h),MP-2(microSv/h),MP-3(microSv/h),MP-4(microSv/h),MP-5(microSv/h),MP-6(microSv/h),MP-7(microSv/h),Wind Direction,Wind Velocity(m/s),Rain
2020/03/29,00:00,0.185,0.170,0.268,0.247,0.258,0.143,0.090,north-northwest,5.8,Yes
2020/03/29,00:10,0.185,0.171,0.268,0.247,0.260,0.143,0.092,north-northwest,6.2,Yes
2020/03/29,00:20,0.186,0.171,0.267,0.247,0.261,0.146,0.092,north-northwest,6.0,Yes
2020/03/29,00:30,0.185,0.170,0.269,0.249,0.260,0.146,0.093,north-northwest,6.3,Yes
2020/03/29,00:40,0.185,0.171,0.269,0.247,0.260,0.146,0.092,northwest,7.5,Yes
2020/03/29,00:50,0.186,0.171,0.268,0.248,0.260,0.146,0.093,northwest,9.8,Yes
2020/03/29,01:00,0.187,0.171,0.268,0.248,0.260,0.146,0.093,north-northwest,9.2,Yes
2020/03/29,01:10,0.186,0.172,0.268,0.247,0.260,0.147,0.093,north-northwest,8.4,Yes
2020/03/29,01:20,0.187,0.172,0.269,0.248,0.261,0.145,0.093,north-northwest,6.8,Yes
2020/03/29,01:30,0.185,0.171,0.268,0.247,0.260,0.146,0.093,north,8.1,Yes
2020/03/29,01:40,0.185,0.172,0.268,0.247,0.260,0.145,0.093,north-northwest,10.1,Yes
2020/03/29,01:50,0.185,0.171,0.268,0.246,0.260,0.145,0.093,north-northwest,11.2,Yes
2020/03/29,02:00,0.186,0.171,0.267,0.246,0.260,0.145,0.092,north-northwest,8.2,Yes
2020/03/29,02:10,0.185,0.171,0.267,0.246,0.258,0.145,0.093,north-northwest,7.2,Yes
2020/03/29,02:20,0.185,0.171,0.268,0.247,0.259,0.144,0.093,north-northwest,7.8,Yes
2020/03/29,02:30,0.185,0.172,0.268,0.245,0.259,0.146,0.093,north-northwest,7.3,Yes
2020/03/29,02:40,0.183,0.170,0.268,0.246,0.260,0.145,0.093,north-northwest,8.4,Yes
2020/03/29,02:50,0.183,0.170,0.267,0.247,0.259,0.145,0.093,north-northwest,9.0,Yes
2020/03/29,03:00,0.183,0.170,0.267,0.245,0.259,0.145,0.092,north-northwest,7.3,Yes
2020/03/29,03:10,0.182,0.170,0.266,0.244,0.257,0.144,0.093,northwest,6.4,Yes
2020/03/29,03:20,0.183,0.169,0.265,0.244,0.256,0.143,0.092,north-northwest,7.7,Yes
2020/03/29,03:30,0.181,0.169,0.265,0.242,0.256,0.143,0.091,north-northwest,9.3,Yes
2020/03/29,03:40,0.181,0.167,0.264,0.241,0.257,0.142,0.091,north-northwest,7.9,Yes
2020/03/29,03:50,0.180,0.169,0.265,0.242,0.256,0.141,0.091,north-northwest,8.6,Yes
2020/03/29,04:00,0.179,0.167,0.264,0.241,0.257,0.141,0.090,north-northwest,8.6,Yes
2020/03/29,04:10,0.181,0.167,0.264,0.242,0.256,0.142,0.090,north-northwest,8.5,Yes
2020/03/29,04:20,0.180,0.168,0.263,0.241,0.256,0.141,0.091,north-northwest,8.7,Yes
2020/03/29,04:30,0.179,0.166,0.262,0.239,0.256,0.141,0.090,north-northwest,8.4,Yes
2020/03/29,04:40,0.179,0.167,0.262,0.239,0.255,0.140,0.089,north-northwest,8.5,Yes
2020/03/29,04:50,0.178,0.166,0.263,0.240,0.255,0.139,0.089,north-northwest,9.0,Yes
2020/03/29,05:00,0.178,0.166,0.262,0.239,0.254,0.140,0.089,north-northwest,7.8,Yes
2020/03/29,05:10,0.178,0.167,0.261,0.238,0.253,0.139,0.089,north-northwest,8.3,Yes
2020/03/29,05:20,0.177,0.165,0.259,0.237,0.253,0.139,0.089,north-northwest,8.7,Yes
2020/03/29,05:30,0.177,0.165,0.259,0.236,0.252,0.138,0.089,north-northwest,9.0,Yes
2020/03/29,05:40,0.178,0.166,0.258,0.234,0.251,0.138,0.088,north-northwest,9.0,Yes
2020/03/29,05:50,0.176,0.165,0.258,0.235,0.251,0.138,0.088,north-northwest,8.6,Yes
2020/03/29,06:00,0.175,0.164,0.256,0.235,0.248,0.138,0.087,north-northwest,9.5,Yes
2020/03/29,06:10,0.176,0.164,0.257,0.233,0.249,0.138,0.088,north-northwest,9.0,Yes
2020/03/29,06:20,0.176,0.164,0.256,0.233,0.249,0.137,0.087,north-northwest,9.2,Yes
2020/03/29,06:30,0.175,0.165,0.255,0.232,0.248,0.136,0.087,north-northwest,8.7,Yes
2020/03/29,06:40,0.175,0.164,0.256,0.232,0.247,0.137,0.087,north-northwest,9.0,Yes
2020/03/29,06:50,0.176,0.164,0.254,0.230,0.247,0.136,0.087,north-northwest,10.0,Yes
2020/03/29,07:00,0.176,0.164,0.254,0.230,0.244,0.136,0.087,north-northwest,8.5,Yes
2020/03/29,07:10,0.177,0.164,0.255,0.229,0.246,0.136,0.087,north-northwest,9.2,Yes
2020/03/29,07:20,0.176,0.163,0.254,0.229,0.245,0.136,0.087,north-northwest,8.8,Yes
2020/03/29,07:30,0.176,0.164,0.254,0.229,0.244,0.135,0.087,north-northwest,10.3,Yes
2020/03/29,07:40,0.175,0.164,0.254,0.228,0.244,0.135,0.087,north-northwest,9.0,Yes
2020/03/29,07:50,0.175,0.165,0.252,0.227,0.241,0.135,0.087,north-northwest,8.7,Yes
2020/03/29,08:00,0.175,0.163,0.252,0.225,0.243,0.135,0.086,north-northwest,8.5,Yes
2020/03/29,08:10,0.176,0.163,0.252,0.226,0.241,0.134,0.088,north-northwest,9.0,Yes
2020/03/29,08:20,0.177,0.164,0.251,0.226,0.242,0.134,0.086,north-northwest,9.5,Yes
2020/03/29,08:30,0.176,0.164,0.250,0.224,0.239,0.136,0.087,north-northwest,8.2,Yes
2020/03/29,08:40,0.176,0.164,0.250,0.223,0.240,0.134,0.087,north-northwest,8.3,Yes
2020/03/29,08:50,0.176,0.163,0.250,0.223,0.239,0.134,0.086,north-northwest,8.5,Yes
2020/03/29,09:00,0.176,0.163,0.249,0.222,0.238,0.134,0.087,north-northwest,9.0,Yes
2020/03/29,09:10,0.175,0.163,0.249,0.221,0.237,0.134,0.087,north-northwest,8.3,Yes
2020/03/29,09:20,0.175,0.163,0.247,0.222,0.237,0.133,0.086,north-northwest,8.3,Yes
2020/03/29,09:30,0.176,0.164,0.248,0.221,0.236,0.134,0.086,north-northwest,8.1,Yes
2020/03/29,09:40,0.175,0.162,0.248,0.219,0.236,0.134,0.087,north-northwest,7.8,Yes
2020/03/29,09:50,0.175,0.162,0.247,0.219,0.234,0.132,0.087,north-northwest,7.6,Yes
2020/03/29,10:00,0.176,0.162,0.245,0.218,0.235,0.133,0.086,north-northwest,8.6,Yes
2020/03/29,10:10,0.175,0.160,0.245,0.216,0.234,0.132,0.086,north-northwest,8.2,Yes
2020/03/29,10:20,0.174,0.162,0.244,0.217,0.233,0.132,0.087,north-northwest,7.8,Yes
2020/03/29,10:30,0.174,0.162,0.244,0.215,0.231,0.132,0.086,north-northwest,8.1,Yes
2020/03/29,10:40,0.174,0.161,0.242,0.215,0.231,0.131,0.086,north-northwest,6.7,Yes
2020/03/29,10:50,0.174,0.161,0.242,0.214,0.230,0.131,0.085,north-northwest,7.3,Yes
2020/03/29,11:00,0.174,0.161,0.241,0.213,0.230,0.130,0.086,north-northwest,8.1,Yes
2020/03/29,11:10,0.173,0.160,0.239,0.213,0.228,0.130,0.086,north-northwest,8.4,Yes
2020/03/29,11:20,0.173,0.159,0.239,0.211,0.228,0.130,0.084,north-northwest,8.3,Yes
2020/03/29,11:30,0.172,0.159,0.236,0.209,0.226,0.129,0.083,north-northwest,8.4,Yes
2020/03/29,11:40,0.172,0.158,0.235,0.208,0.226,0.128,0.085,north-northwest,8.2,Yes
2020/03/29,11:50,0.171,0.157,0.234,0.208,0.224,0.128,0.083,north-northwest,9.2,Yes
2020/03/29,12:00,0.171,0.157,0.234,0.207,0.224,0.128,0.084,north-northwest,9.6,Yes
2020/03/29,12:10,0.171,0.157,0.233,0.205,0.224,0.128,0.083,north-northwest,9.5,Yes
2020/03/29,12:20,0.171,0.156,0.232,0.206,0.223,0.127,0.083,north-northwest,9.8,Yes
2020/03/29,12:30,0.170,0.157,0.230,0.204,0.222,0.128,0.083,north-northwest,9.3,Yes
2020/03/29,12:40,0.171,0.156,0.231,0.204,0.220,0.127,0.082,north-northwest,10.6,Yes
2020/03/29,12:50,0.170,0.155,0.230,0.202,0.220,0.126,0.083,north-northwest,9.5,Yes
2020/03/29,13:00,0.169,0.156,0.229,0.201,0.220,0.126,0.083,northwest,9.3,Yes
2020/03/29,13:10,0.168,0.154,0.227,0.200,0.219,0.125,0.081,north-northwest,9.2,Yes
2020/03/29,13:20,0.168,0.154,0.227,0.200,0.218,0.125,0.081,north-northwest,8.2,Yes
2020/03/29,13:30,0.169,0.155,0.225,0.199,0.217,0.124,0.081,north-northwest,9.2,Yes
2020/03/29,13:40,0.167,0.153,0.226,0.197,0.215,0.123,0.080,north-northwest,8.7,Yes
2020/03/29,13:50,0.166,0.153,0.225,0.197,0.215,0.122,0.080,north-northwest,7.6,Yes
2020/03/29,14:00,0.167,0.154,0.227,0.197,0.216,0.122,0.079,north-northwest,7.9,Yes
2020/03/29,14:10,0.167,0.154,0.226,0.197,0.215,0.123,0.080,northwest,7.9,Yes
2020/03/29,14:20,0.167,0.154,0.226,0.196,0.214,0.123,0.079,north-northwest,8.2,Yes
2020/03/29,14:30,0.168,0.153,0.226,0.196,0.215,0.122,0.079,north-northwest,8.5,Yes
2020/03/29,14:40,0.168,0.152,0.226,0.195,0.214,0.123,0.079,north-northwest,7.6,Yes
2020/03/29,14:50,0.168,0.154,0.227,0.195,0.215,0.122,0.079,north-northwest,9.0,Yes
2020/03/29,15:00,0.168,0.155,0.227,0.196,0.214,0.121,0.080,north-northwest,9.5,Yes
2020/03/29,15:10,0.169,0.155,0.227,0.195,0.215,0.123,0.080,northwest,9.5,Yes
2020/03/29,15:20,0.169,0.154,0.228,0.196,0.214,0.123,0.079,northwest,9.3,Yes
2020/03/29,15:30,0.170,0.154,0.228,0.196,0.215,0.123,0.080,northwest,8.7,Yes
2020/03/29,15:40,0.169,0.154,0.229,0.195,0.215,0.122,0.079,north-northwest,8.4,Yes
2020/03/29,15:50,0.168,0.155,0.228,0.196,0.215,0.122,0.079,north-northwest,8.4,Yes
2020/03/29,16:00,0.169,0.155,0.229,0.195,0.213,0.122,0.079,north-northwest,8.2,No
2020/03/29,16:10,0.169,0.154,0.230,0.196,0.213,0.122,0.078,north-northwest,9.0,No
2020/03/29,16:20,0.169,0.154,0.228,0.196,0.214,0.122,0.079,northwest,8.7,No
2020/03/29,16:30,0.169,0.154,0.229,0.194,0.213,0.121,0.078,north-northwest,9.8,No
2020/03/29,16:40,0.168,0.155,0.229,0.196,0.213,0.122,0.078,north-northwest,9.5,No
2020/03/29,16:50,0.168,0.154,0.231,0.196,0.214,0.121,0.078,north-northwest,9.3,No
2020/03/29,17:00,0.169,0.154,0.232,0.197,0.214,0.121,0.077,north-northwest,8.7,No
2020/03/29,17:10,0.169,0.153,0.232,0.196,0.214,0.121,0.077,north-northwest,8.4,No
2020/03/29,17:20,0.169,0.155,0.231,0.197,0.215,0.121,0.078,north-northwest,8.6,No
2020/03/29,17:30,0.170,0.153,0.233,0.197,0.213,0.121,0.078,north-northwest,9.2,No
2020/03/29,17:40,0.170,0.154,0.232,0.198,0.215,0.121,0.078,north-northwest,8.2,No
2020/03/29,17:50,0.170,0.154,0.233,0.197,0.215,0.122,0.078,north-northwest,9.5,No
2020/03/29,18:00,0.169,0.154,0.233,0.197,0.215,0.122,0.077,northwest,9.0,No
2020/03/29,18:10,0.170,0.155,0.232,0.199,0.215,0.122,0.077,north-northwest,8.8,No
2020/03/29,18:20,0.170,0.155,0.232,0.199,0.215,0.122,0.078,north-northwest,9.3,No
2020/03/29,18:30,0.172,0.155,0.234,0.199,0.216,0.122,0.078,northwest,8.2,No
2020/03/29,18:40,0.171,0.155,0.234,0.198,0.215,0.123,0.078,northwest,8.6,No
2020/03/29,18:50,0.171,0.154,0.235,0.199,0.216,0.123,0.078,north-northwest,9.2,No
2020/03/29,19:00,0.171,0.155,0.235,0.200,0.217,0.123,0.078,northwest,8.7,No
2020/03/29,19:10,0.170,0.155,0.236,0.201,0.215,0.122,0.078,northwest,7.8,No
2020/03/29,19:20,0.171,0.154,0.235,0.201,0.217,0.123,0.078,northwest,8.5,No
2020/03/29,19:30,0.171,0.154,0.235,0.200,0.218,0.122,0.078,northwest,8.4,No
2020/03/29,19:40,0.172,0.155,0.235,0.202,0.218,0.123,0.078,northwest,9.2,No
2020/03/29,19:50,0.171,0.156,0.236,0.202,0.218,0.123,0.078,north-northwest,8.6,No
2020/03/29,20:00,0.172,0.155,0.235,0.202,0.217,0.124,0.079,northwest,8.2,No
2020/03/29,20:10,0.171,0.154,0.236,0.203,0.218,0.124,0.078,northwest,7.9,No
2020/03/29,20:20,0.172,0.155,0.236,0.202,0.218,0.123,0.079,northwest,8.2,No
2020/03/29,20:30,0.172,0.156,0.235,0.202,0.219,0.123,0.079,north-northwest,8.4,No
2020/03/29,20:40,0.172,0.155,0.237,0.203,0.219,0.124,0.079,northwest,7.6,No
2020/03/29,20:50,0.171,0.155,0.237,0.203,0.220,0.124,0.079,north-northwest,7.3,No
2020/03/29,21:00,0.173,0.156,0.237,0.203,0.218,0.124,0.078,northwest,6.7,No
2020/03/29,21:10,0.173,0.156,0.238,0.203,0.218,0.125,0.078,northwest,6.7,No
2020/03/29,21:20,0.173,0.156,0.237,0.204,0.220,0.124,0.078,northwest,7.0,No
2020/03/29,21:30,0.173,0.156,0.236,0.204,0.219,0.124,0.079,northwest,6.8,No
2020/03/29,21:40,0.173,0.156,0.238,0.204,0.220,0.124,0.079,northwest,7.3,No
2020/03/29,21:50,0.173,0.155,0.237,0.204,0.220,0.124,0.078,northwest,7.1,No
2020/03/29,22:00,0.172,0.156,0.237,0.204,0.220,0.124,0.079,northwest,7.5,No
2020/03/29,22:10,0.173,0.155,0.236,0.205,0.221,0.125,0.079,northwest,7.8,No
2020/03/29,22:20,0.171,0.157,0.236,0.204,0.220,0.125,0.079,north-northwest,7.5,No
2020/03/29,22:30,0.173,0.154,0.238,0.204,0.221,0.125,0.079,north-northwest,7.1,No
2020/03/29,22:40,0.172,0.155,0.238,0.204,0.221,0.125,0.079,northwest,7.3,No
2020/03/29,22:50,0.173,0.156,0.237,0.204,0.221,0.124,0.079,north-northwest,7.0,No
2020/03/29,23:00,0.173,0.156,0.238,0.204,0.221,0.124,0.079,northwest,6.7,No
2020/03/29,23:10,0.173,0.156,0.238,0.206,0.221,0.125,0.079,northwest,7.1,No
2020/03/29,23:20,0.173,0.156,0.237,0.205,0.221,0.125,0.079,northwest,7.0,No
2020/03/29,23:30,0.173,0.156,0.238,0.205,0.222,0.125,0.080,northwest,7.0,No
2020/03/29,23:40,0.173,0.156,0.239,0.204,0.221,0.124,0.079,northwest,6.7,No
2020/03/29,23:50,0.174,0.155,0.240,0.205,0.222,0.125,0.079,northwest,6.8,No
